TimeMST,TemperatureF,Dew PointF,Humidity,Sea Level PressureIn,VisibilityMPH,Wind Direction,Wind SpeedMPH,Gust SpeedMPH,PrecipitationIn,Events,Conditions,WindDirDegrees,DateUTC
12:53 AM,24.1,16.0,71,29.75,10.0,South,12.7,-,N/A,,Clear,180,2012-12-08 07:53:00
1:53 AM,26.1,17.1,69,29.69,10.0,South,15.0,-,N/A,,Partly Cloudy,180,2012-12-08 08:53:00
2:53 AM,27.0,17.1,66,29.67,10.0,South,13.8,-,N/A,,Clear,190,2012-12-08 09:53:00
3:53 AM,30.2,17.6,60,29.56,10.0,SW,20.7,-,N/A,,Clear,230,2012-12-08 10:53:00
4:53 AM,28.9,17.1,61,29.66,10.0,WSW,13.8,-,N/A,,Clear,240,2012-12-08 11:53:00
5:53 AM,28.9,17.1,61,29.65,10.0,SW,16.1,-,N/A,,Clear,230,2012-12-08 12:53:00
6:53 AM,30.0,18.0,61,29.65,10.0,SW,15.0,-,N/A,,Mostly Cloudy,230,2012-12-08 13:53:00
7:53 AM,30.9,18.0,59,29.70,10.0,NNW,18.4,27.6,N/A,,Overcast,340,2012-12-08 14:53:00
8:05 AM,30.2,19.4,64,29.61,10.0,WNW,20.7,25.3,N/A,,Overcast,300,2012-12-08 15:05:00
8:53 AM,28.0,21.0,75,29.74,10.0,NW,13.8,-,N/A,,Mostly Cloudy,310,2012-12-08 15:53:00
9:53 AM,28.9,21.0,72,29.76,3.0,NW,20.7,26.5,0.00,Snow,Light Snow,320,2012-12-08 16:53:00
10:06 AM,30.2,21.2,69,29.64,7.0,NNW,16.1,25.3,0.00,,Overcast,330,2012-12-08 17:06:00
10:53 AM,28.9,19.9,69,29.75,10.0,NW,20.7,27.6,0.00,,Overcast,310,2012-12-08 17:53:00
11:53 AM,28.9,18.0,64,29.75,10.0,WNW,18.4,-,N/A,,Overcast,300,2012-12-08 18:53:00
12:53 PM,27.0,16.0,63,29.76,10.0,NW,20.7,32.2,N/A,,Overcast,320,2012-12-08 19:53:00
1:53 PM,26.1,17.1,69,29.77,10.0,NW,18.4,26.5,N/A,,Overcast,320,2012-12-08 20:53:00
2:53 PM,25.0,18.0,75,29.80,10.0,WNW,29.9,34.5,N/A,,Overcast,300,2012-12-08 21:53:00
3:11 PM,23.0,17.6,80,29.71,10.0,NW,27.6,33.4,N/A,,Overcast,310,2012-12-08 22:11:00
3:53 PM,19.0,12.9,77,29.87,7.0,NW,29.9,42.6,0.00,Snow,Light Snow,310,2012-12-08 22:53:00
4:09 PM,17.6,12.2,79,29.78,2.0,NW,27.6,38.0,0.00,Snow,Light Snow,310,2012-12-08 23:09:00
4:19 PM,17.6,12.2,79,29.79,1.8,NW,28.8,38.0,0.00,Snow,Light Snow,310,2012-12-08 23:19:00
4:28 PM,17.6,12.2,79,29.80,2.5,NW,24.2,38.0,0.00,Snow,Light Snow,320,2012-12-08 23:28:00
4:43 PM,17.6,12.2,79,29.80,1.8,NW,27.6,35.7,N/A,Snow,Light Snow,310,2012-12-08 23:43:00
4:53 PM,17.1,12.0,81,29.94,2.0,NW,27.6,35.7,0.00,Snow,Light Snow,310,2012-12-08 23:53:00
5:12 PM,15.8,12.2,86,29.82,6.0,NW,32.2,41.4,0.00,Snow,Light Snow,310,2012-12-09 00:12:00
5:45 PM,15.8,10.4,79,29.84,9.0,NW,27.6,40.3,0.00,,Overcast,310,2012-12-09 00:45:00
5:53 PM,15.1,10.0,80,29.98,10.0,NW,26.5,35.7,0.00,,Overcast,310,2012-12-09 00:53:00
6:36 PM,14.0,10.4,86,29.86,2.0,NW,28.8,33.4,0.00,Snow,Light Snow,310,2012-12-09 01:36:00
6:45 PM,14.0,10.4,86,29.87,1.2,NW,26.5,36.8,0.00,Snow,Light Snow,310,2012-12-09 01:45:00
6:53 PM,14.0,10.0,84,30.02,1.2,NW,27.6,34.5,0.00,Snow,Light Snow,310,2012-12-09 01:53:00
7:20 PM,14.0,10.4,86,29.89,2.5,NW,26.5,33.4,0.00,Snow,Light Snow,320,2012-12-09 02:20:00
7:31 PM,12.2,8.6,85,29.90,3.0,NW,27.6,35.7,0.00,Snow,Light Snow,320,2012-12-09 02:31:00
7:38 PM,12.2,8.6,85,29.90,2.0,NNW,29.9,41.4,0.00,Snow,Light Snow,330,2012-12-09 02:38:00
7:46 PM,12.2,10.4,92,29.91,1.8,NNW,18.4,36.8,0.00,Snow,Light Snow,330,2012-12-09 02:46:00
7:53 PM,12.9,10.0,88,30.05,1.8,NW,17.3,-,0.00,Snow,Light Snow,320,2012-12-09 02:53:00
8:12 PM,12.2,8.6,85,29.93,1.5,NW,25.3,36.8,0.00,Snow,Light Snow,320,2012-12-09 03:12:00
8:23 PM,12.2,8.6,85,29.95,2.0,NW,26.5,35.7,0.00,Snow,Light Snow,320,2012-12-09 03:23:00
8:32 PM,12.2,8.6,85,29.95,1.8,NW,21.9,31.1,0.00,Snow,Light Snow,320,2012-12-09 03:32:00
8:53 PM,12.0,8.1,84,30.12,2.0,NW,23.0,33.4,0.00,Snow,Light Snow,320,2012-12-09 03:53:00
9:03 PM,10.4,8.6,92,29.97,3.0,NW,19.6,29.9,0.00,,Overcast,320,2012-12-09 04:03:00
9:12 PM,10.4,6.8,85,29.98,3.0,NW,23.0,32.2,0.00,,Overcast,320,2012-12-09 04:12:00
9:21 PM,10.4,6.8,85,29.98,2.5,NW,24.2,31.1,0.00,,Overcast,320,2012-12-09 04:21:00
9:28 PM,10.4,6.8,85,29.99,4.0,NW,27.6,34.5,0.00,,Overcast,320,2012-12-09 04:28:00
9:53 PM,10.9,6.1,81,30.15,3.0,NW,23.0,35.7,0.00,Snow,Light Snow,320,2012-12-09 04:53:00
10:00 PM,10.4,6.8,85,30.01,1.8,NW,21.9,34.5,0.00,Snow,Light Snow,320,2012-12-09 05:00:00
10:24 PM,10.4,6.8,85,30.02,1.8,NW,25.3,31.1,0.00,Snow,Light Snow,320,2012-12-09 05:24:00
10:53 PM,10.0,6.1,84,30.19,1.5,NW,16.1,27.6,0.00,Snow,Light Snow,320,2012-12-09 05:53:00
11:09 PM,8.6,6.8,92,30.05,2.0,NNW,19.6,25.3,0.00,Snow,Light Snow,330,2012-12-09 06:09:00
11:16 PM,8.6,6.8,92,30.05,3.0,NNW,19.6,-,0.00,Snow,Light Snow,330,2012-12-09 06:16:00
11:53 PM,9.0,5.0,84,30.23,4.0,NNW,15.0,23.0,0.00,,Overcast,330,2012-12-09 06:53:00